Location: ???????
(55.4231°N, 38.5570°E)
Time: 13:14:01
(UTC+00:00)

Lacrosse 4 Rocket - Pass Details

Date: 05 August 2024
Orbit: 520 x 592 km, 68.0° (Epoch: 18 September)

Event Time Altitude Azimuth Distance (km) Brightness Sun altitude
Rises 00:31:20 0° 320° (NW) 2,800 5.0 -8.4°
Reaches altitude 10° 00:33:37 10° 326° (NW) 1,909 4.2 -8.2°
Maximum altitude 00:37:47 48° 41° (NE) 778 2.7 -7.7°
Drops below altitude 10° 00:41:59 10° 117° (ESE) 1,927 4.3 -7.3°
Sets 00:44:18 0° 123° (ESE) 2,830 5.1 -7.1°
